Location: Bouchavesnes-Bergen
(49.9859°N, 2.9203°E)
Time: 05:02:23
(UTC+00:00)

NOSS 3-1 (A) - Pass Details

Date: 09 March 2021
Orbit: 734 x 1479 km, 63.4° (Epoch: 07 April)

Event Time Altitude Azimuth Distance (km) Brightness Sun altitude
Exits shadow 02:39:30 41° 347° (NNW) 1,361 4.3 -33.3°
Drops below altitude 10° 02:45:14 10° 41° (NE) 2,931 6.8 -32.6°
Sets 02:48:20 0° 48° (NE) 4,017 7.8 -32.2°
